Theta_e
329 329 329 329 329 329 329 329 328 328 327 327 326 326 327 327 326 327 326 326 326 326 326 326 326 326 326 326 327 326 327 326 326 326 325 325 325 325 324 324 324 324
329 329 329 329 329 329 329 329 329 328 328 327 327 326 327 327 327 327 327 328 328 327 327 327 326 327 327 327 327 326 327 326 326 326 326 325 325 325 325 324 324 324
329 329 329 329 329 329 329 329 329 329 328 327 327 327 326 327 327 328 328 328 328 328 328 328 327 327 327 327 327 327 326 326 326 326 326 326 325 325 325 324 324 324
328 328 329 329 329 329 329 329 329 328 328 327 327 327 326 326 327 327 328 328 328 328 328 328 328 328 327 327 327 327 327 327 327 327 326 326 326 325 325 325 325 325
328 328 328 328 328 329 328 328 329 328 328 327 327 327 326 326 327 327 328 328 328 328 328 329 328 328 328 327 327 327 327 327 326 327 326 325 326 326 325 326 325 325
327 327 327 328 328 328 328 328 328 328 328 327 327 327 326 326 327 327 328 328 328 328 328 328 328 328 328 328 328 327 327 327 326 327 326 325 325 325 325 325 324 325
327 326 327 327 327 327 327 328 328 328 327 327 327 327 326 327 327 327 327 327 328 328 328 328 328 328 328 328 328 327 327 327 327 327 326 325 325 325 324 325 324 324
326 326 326 326 327 327 327 328 327 327 327 327 327 327 327 327 327 327 328 327 328 328 327 328 328 327 328 328 327 327 327 327 326 326 325 325 324 324 324 325 324 322
326 325 326 326 326 327 327 327 327 327 328 327 327 328 327 327 328 327 328 327 328 328 327 328 327 327 327 327 327 327 326 327 326 325 325 325 325 325 325 325 322 320
325 325 325 325 326 326 326 327 327 327 328 328 328 328 327 328 328 328 328 328 327 328 327 327 327 327 327 327 327 327 326 326 326 325 325 326 325 324 322 321 320 320
325 325 325 325 325 326 326 326 327 327 327 327 328 328 328 328 328 328 327 327 327 327 327 327 327 327 326 326 326 326 326 326 326 325 324 323 321 319 319 318 317 318
324 324 325 326 325 326 326 326 326 326 327 327 327 327 327 327 327 327 327 327 327 327 327 327 327 327 326 326 326 326 325 325 324 323 321 321 321 320 320 320 318 318
319 320 322 323 324 324 325 325 325 325 325 326 326 326 326 326 326 326 326 326 327 326 327 327 327 327 326 326 326 325 325 324 322 320 320 322 322 321 321 320 319 319
314 316 316 318 318 319 320 320 320 321 322 323 324 324 325 325 325 325 326 326 326 326 326 326 325 325 326 326 326 325 325 323 321 321 322 323 322 321 320 320 318 316
312 313 313 315 315 316 316 317 317 319 320 321 322 323 324 324 324 325 325 324 325 325 324 324 323 323 324 325 325 324 323 322 322 322 323 322 320 320 319 317 315 313
310 312 313 315 315 315 316 316 317 319 320 321 322 322 323 323 323 323 323 323 323 323 322 322 322 322 323 323 322 321 320 320 321 321 320 319 318 317 316 315 313 312
310 312 314 315 315 315 315 315 316 318 319 319 320 320 320 321 322 321 320 320 321 321 320 321 321 321 322 321 320 319 319 319 319 318 317 317 316 315 314 313 311 309
312 313 314 313 312 312 312 312 312 313 314 315 315 316 317 318 318 319 319 319 319 319 319 319 319 320 319 319 319 318 318 318 318 316 316 315 314 313 312 310 309 308
313 312 312 310 309 308 307 307 307 307 308 310 311 313 314 315 316 316 317 318 318 318 318 317 317 317 317 317 317 317 317 317 316 315 314 314 313 312 311 309 308 306
310 310 309 308 307 305 303 303 303 305 306 308 309 310 312 313 314 314 315 315 315 316 316 316 316 315 316 316 316 316 316 315 314 313 313 312 311 310 309 308 307 306
308 307 306 305 304 303 302 302 302 303 305 306 308 309 310 311 312 313 313 313 314 314 314 315 315 315 315 315 315 314 313 312 311 311 311 309 308 307 306 306 306 306
307 305 304 303 302 302 302 303 303 303 304 305 306 308 309 310 310 311 312 312 312 312 312 312 313 313 314 314 313 312 310 309 309 309 307 306 305 305 305 304 304 304
305 303 302 301 301 302 303 303 304 304 304 304 305 307 307 308 308 309 310 310 310 310 310 310 311 311 312 312 311 310 308 308 307 306 305 304 304 303 303 302 302 302
303 302 301 301 301 302 303 304 305 306 306 306 306 307 307 308 308 309 309 309 309 309 308 308 309 309 310 310 309 308 307 306 305 304 303 302 302 301 301 300 300 300
302 301 301 301 302 302 303 305 305 306 307 307 307 307 308 308 309 309 309 309 309 308 308 308 308 308 308 308 307 306 305 303 302 302 301 301 301 301 300 300 300 300
301 300 300 301 301 302 304 305 306 307 307 308 308 308 308 308 308 308 308 308 307 307 307 308 308 307 306 305 304 304 304 303 302 302 302 302 301 300 299 299 300 300
Wind_Speed
41 40 39 38 38 38 36 34 33 32 33 33 34 36 36 36 36 35 36 38 39 40 42 41 41 42 42 41 40 40 39 40 40 40 39 39 39 39 39 39 38 37
42 40 40 39 39 40 38 37 35 34 35 35 35 36 36 35 34 34 35 36 37 38 39 39 39 40 40 40 40 39 39 39 39 40 39 38 39 39 39 39 39 39
43 41 41 41 42 42 40 38 36 36 37 36 36 36 35 34 34 34 34 35 35 36 37 37 38 38 39 39 39 39 39 39 39 39 39 39 39 38 39 39 39 39
43 42 42 43 44 43 40 37 37 38 38 37 37 36 34 34 34 34 34 34 34 35 36 37 38 38 38 38 38 38 39 39 40 39 39 39 39 39 39 39 39 40
41 41 42 43 43 41 37 36 39 39 38 38 37 35 35 35 34 34 34 33 33 34 34 36 37 37 38 38 38 38 38 39 38 38 38 38 39 40 41 41 41 39
38 39 40 41 40 38 36 37 39 39 37 38 36 35 36 35 34 35 34 34 34 34 34 35 36 37 37 37 38 38 38 38 37 37 37 38 39 40 40 40 39 38
38 38 38 38 37 36 36 38 39 38 38 37 35 35 36 35 35 35 34 34 34 34 35 35 36 37 37 37 38 37 38 37 37 37 38 39 38 39 40 39 39 40
37 36 35 35 35 35 36 37 38 37 37 36 35 36 35 35 35 35 35 35 35 35 36 36 36 36 36 36 37 37 37 36 36 37 37 37 35 36 38 38 40 41
35 34 33 33 34 35 36 37 37 36 35 35 36 36 36 36 36 35 35 36 36 36 36 36 36 36 35 36 36 36 35 35 36 36 36 35 35 38 40 41 40 38
33 33 33 32 33 34 35 35 35 35 35 35 36 35 35 36 36 35 35 35 35 36 35 35 35 35 34 35 35 35 35 35 36 37 37 38 38 39 39 38 39 38
31 31 32 32 33 34 34 34 34 33 34 34 34 34 35 35 34 34 34 34 34 34 34 34 34 34 34 34 34 35 35 36 37 37 38 37 34 31 31 33 35 36
30 30 31 32 32 33 33 33 32 31 32 32 32 32 32 32 32 31 32 32 32 32 33 32 32 33 34 33 34 34 34 36 36 34 31 30 28 27 29 32 32 32
28 29 29 29 30 30 30 30 29 29 29 29 28 28 28 29 29 29 29 30 30 31 31 30 31 33 33 33 33 32 32 33 33 29 25 26 27 27 28 30 32 33
25 25 26 26 25 25 25 24 24 24 24 23 23 23 23 24 24 24 25 26 26 27 28 29 30 32 32 31 31 30 31 31 29 26 25 26 27 27 28 29 31 32
22 22 21 21 20 20 19 19 19 18 18 17 17 18 18 19 20 21 22 23 23 25 26 27 27 27 28 29 29 29 29 28 26 25 25 26 27 28 28 29 29 29
20 19 19 18 18 18 17 17 17 17 17 16 16 16 16 16 17 18 19 21 21 22 23 22 21 21 23 24 25 24 23 22 22 23 24 25 26 26 27 28 27 27
18 18 17 17 17 16 16 17 17 17 17 17 16 16 16 16 16 16 15 15 15 16 16 16 15 16 17 19 20 19 20 20 21 21 22 23 24 24 25 26 25 25
16 16 16 16 15 15 15 16 16 16 17 18 18 17 17 17 17 16 16 16 15 15 15 15 14 14 15 16 17 17 18 20 21 21 21 21 22 23 23 24 23 23
15 16 16 15 15 15 15 14 14 14 14 15 16 16 16 15 15 16 16 16 16 15 16 16 15 15 14 14 15 16 16 16 17 18 18 19 20 21 22 23 22 22
16 17 16 15 15 14 13 12 13 13 12 12 13 13 13 13 13 14 14 14 14 14 13 13 13 12 12 12 13 13 13 14 14 15 16 18 20 20 21 21 22 22
18 18 17 15 14 12 10 9 10 13 14 13 12 12 12 12 12 12 12 11 11 11 10 9 9 9 9 10 10 11 12 12 13 13 15 17 18 18 19 20 21 21
20 18 16 14 13 11 10 9 9 11 14 14 13 12 12 11 11 10 10 10 9 9 9 9 9 9 8 8 9 9 10 10 11 13 15 16 16 16 17 18 19 20
20 18 16 14 13 12 12 12 11 10 12 14 14 13 12 12 11 11 11 12 12 12 12 12 12 11 10 10 9 8 9 10 10 12 13 14 14 15 16 17 18 19
20 19 18 17 17 15 15 14 13 13 12 12 13 13 13 13 13 13 13 12 12 12 12 12 13 12 11 10 9 8 9 9 9 11 13 14 14 14 15 16 17 17
21 20 20 20 20 19 18 17 16 15 14 12 12 13 13 14 14 13 13 12 11 11 11 11 11 10 10 10 9 9 9 8 9 11 12 12 13 13 14 15 16 16
22 21 22 22 22 21 21 20 18 17 16 14 14 14 14 14 14 14 13 12 11 11 10 10 10 9 9 9 9 9 9 9 10 11 11 12 12 13 13 14 14 14
Wind_Direction
228 229 230 231 233 235 235 235 236 236 237 238 239 241 242 242 242 240 240 241 240 240 241 241 241 242 243 244 243 243 243 243 244 245 243 241 241 242 241 242 241 241
228 229 230 231 233 235 235 235 235 236 238 239 240 242 243 243 243 243 242 242 241 242 243 242 243 244 243 244 244 243 243 243 243 244 243 242 242 242 241 241 242 242
228 229 229 231 233 235 235 234 235 237 239 240 241 242 243 244 245 245 244 244 243 244 245 245 245 245 245 245 244 243 243 242 243 244 244 243 242 241 242 241 242 242
228 229 230 232 234 235 235 234 235 238 239 241 243 243 243 245 245 246 246 245 245 246 247 247 247 247 246 246 244 243 244 243 244 245 243 243 243 242 243 243 243 242
229 230 231 233 235 235 234 233 236 238 238 241 243 243 245 245 245 246 246 246 247 247 248 249 249 248 247 246 244 243 243 243 244 244 242 242 242 242 242 242 240 239
231 231 232 233 234 234 233 234 237 238 239 241 243 244 245 246 246 247 247 247 248 248 249 249 249 249 248 247 245 243 243 243 244 243 242 242 243 243 242 241 240 240
232 233 233 234 234 234 234 236 238 238 239 241 242 244 245 246 247 248 248 249 249 250 250 249 248 248 247 246 244 244 243 243 244 244 243 243 243 243 241 241 242 240
233 234 234 235 235 235 235 237 238 239 240 241 242 245 246 246 248 249 250 251 250 250 250 249 249 247 247 245 243 243 244 244 244 243 241 242 243 243 243 244 244 238
234 235 235 236 236 236 237 238 239 241 241 242 243 246 247 247 249 249 249 250 249 249 249 248 249 247 246 245 244 243 244 246 247 244 242 244 247 249 248 246 242 236
235 236 235 236 237 238 239 241 242 243 243 244 245 247 248 248 249 248 248 248 247 247 248 247 248 248 247 246 246 246 246 247 248 247 246 245 246 245 244 243 240 235
234 235 234 236 237 239 241 242 243 244 244 245 245 246 247 247 248 247 247 246 246 247 248 248 250 250 248 248 248 248 247 247 247 246 243 241 242 244 244 244 242 237
231 232 232 235 237 238 240 241 242 243 243 244 244 245 247 247 248 248 248 248 249 249 249 250 253 252 250 250 250 249 248 246 245 244 242 242 248 252 251 249 248 247
230 231 232 234 236 238 240 240 241 242 242 243 244 245 246 247 248 249 249 250 250 250 251 252 254 253 251 249 249 250 250 247 244 244 246 248 251 254 255 254 254 253
230 231 232 234 235 237 238 238 239 241 243 244 245 246 246 247 248 250 251 252 252 252 251 250 249 248 248 249 250 250 251 248 245 245 248 251 254 257 260 260 257 255
231 231 231 231 232 232 232 232 233 235 237 238 240 241 242 245 247 248 248 249 250 250 248 246 245 245 244 246 248 249 248 245 242 245 250 255 258 260 261 261 260 258
231 230 227 226 225 224 224 226 225 225 225 226 227 229 232 236 240 241 242 241 242 243 243 243 246 248 247 247 249 250 247 243 244 250 255 259 259 260 261 261 259 256
225 223 221 221 221 222 224 226 227 226 226 226 227 228 228 229 232 236 240 240 238 239 241 244 248 252 253 254 253 252 249 249 255 260 262 262 261 261 261 259 253 249
217 215 215 217 220 224 228 232 234 235 234 234 235 237 237 236 237 239 242 244 245 247 249 252 254 252 252 253 254 254 255 258 261 264 264 262 261 260 258 254 248 245
210 210 212 217 223 229 233 234 235 236 236 236 235 237 238 238 239 240 240 242 243 245 248 251 253 252 252 257 259 260 261 261 261 262 263 262 260 258 255 251 246 242
209 211 214 220 226 235 240 238 232 230 229 229 230 230 232 233 235 238 238 240 242 243 247 250 253 254 256 259 261 260 260 259 258 259 262 261 258 256 253 251 247 244
213 214 218 224 229 236 240 233 226 224 223 222 221 221 223 224 226 228 231 235 238 240 242 244 244 243 243 245 246 246 248 251 255 257 257 255 253 253 253 252 251 249
215 217 220 223 223 220 215 211 212 216 217 217 216 215 216 220 222 227 232 235 238 239 238 239 241 240 239 241 243 242 242 245 250 254 252 250 252 254 254 253 252 251
214 215 214 212 208 203 202 203 203 205 207 209 212 214 218 223 226 230 235 239 242 244 243 243 245 247 247 248 250 250 248 247 246 248 249 249 251 253 254 252 252 252
211 211 207 202 199 197 197 199 200 201 202 200 201 205 209 212 214 218 224 229 233 235 236 237 238 239 240 241 244 244 243 243 242 240 241 244 246 248 251 252 253 253
210 208 203 199 196 193 193 195 195 198 203 203 202 204 207 208 211 216 221 223 225 227 228 230 232 233 233 232 231 231 229 227 228 230 234 240 244 246 249 252 254 256
207 205 202 199 196 191 189 190 192 195 200 201 200 202 206 208 209 213 215 214 214 214 215 218 221 221 220 219 217 219 221 219 220 226 230 234 238 241 245 250 254 258